Location: Girdwood
(60.9430°N, 149.1660°W)
Time: 07:20:38
(UTC-08:00)

Iridium 86 - Visible Passes

Search period start: 29 March 2017 00:00
Search period end: 08 April 2017 00:00
Orbit: 776 x 779 km, 86.4° (Epoch: 27 March)

Date Brightness Start Highest point End Pass type
(mag) Time Alt. Az. Time Alt. Az. Time Alt. Az.
29 Mar 6.6 01:17:26 10° N 01:22:12 34° ENE 01:23:14 31° E visible
29 Mar 5.6 02:58:07 10° N 03:03:18 61° W 03:03:42 59° WSW visible
29 Mar 7.4 04:40:03 10° NNW 04:43:03 16° WNW 04:44:11 15° W visible
30 Mar 7.1 00:44:05 10° N 00:48:18 24° ENE 00:49:50 21° E visible
30 Mar 5.4 02:24:30 10° N 02:29:47 90° WSW 02:30:19 73° S visible
30 Mar 6.9 04:05:55 10° NNW 04:09:55 23° WNW 04:10:47 22° W visible
31 Mar 7.5 00:10:52 10° NNE 00:14:17 17° NE 00:16:27 14° E visible
31 Mar 5.7 01:50:58 10° N 01:56:10 62° ENE 01:56:55 55° ESE visible
31 Mar 6.5 03:32:03 10° NNW 03:36:40 33° W 03:37:24 31° W visible
31 Mar 7.8 23:38:00 10° NNE 23:40:10 12° NE 23:42:22 10° ENE visible
01 Apr 6.3 01:17:28 10° N 01:22:27 42° ENE 01:23:32 37° ESE visible
01 Apr 5.9 02:58:18 10° NNW 03:03:20 48° W 03:04:01 45° WSW visible
01 Apr 7.6 04:40:46 10° NW 04:42:52 12° WNW 04:44:29 11° W visible
02 Apr 6.8 00:44:03 10° N 00:48:37 29° ENE 00:50:09 25° E visible
02 Apr 5.5 02:24:38 10° N 02:29:52 72° W 02:30:38 61° SW visible
02 Apr 7.3 04:06:19 10° NNW 04:09:47 18° WNW 04:11:06 17° W visible
03 Apr 7.3 00:10:44 10° N 00:14:41 21° ENE 00:16:47 17° E visible
03 Apr 5.5 01:51:03 10° N 01:56:19 78° E 01:57:15 60° SSE visible
03 Apr 6.8 03:32:19 10° NNW 03:36:36 26° WNW 03:37:43 24° W visible
03 Apr 7.7 23:37:37 10° NNE 23:40:38 15° NE 23:43:24 11° E visible
04 Apr 5.9 01:17:31 10° N 01:22:40 53° ENE 01:23:52 43° ESE visible
04 Apr 6.3 02:58:30 10° NNW 03:03:18 38° W 03:04:21 34° WSW visible
04 Apr 7.9 23:05:05 10° NNE 23:06:28 11° NE 23:07:51 10° ENE visible
05 Apr 6.5 00:44:04 10° N 00:48:54 36° ENE 00:50:30 29° ESE visible
05 Apr 5.8 02:24:47 10° NNW 02:29:55 56° W 02:30:59 47° SW visible
05 Apr 7.5 04:06:52 10° NW 04:09:36 14° WNW 04:11:27 12° W visible
06 Apr 7.0 00:10:41 10° N 00:15:01 26° ENE 00:17:08 20° E visible
06 Apr 5.5 01:51:10 10° N 01:56:25 83° W 01:57:37 55° S visible
06 Apr 7.2 03:32:40 10° NNW 03:36:29 21° WNW 03:38:05 18° W visible
06 Apr 7.4 23:37:25 10° NNE 23:41:03 18° NE 23:43:46 13° E visible
07 Apr 5.6 01:17:35 10° N 01:22:50 67° E 01:24:15 47° SE visible
07 Apr 6.7 02:58:44 10° NNW 03:03:15 30° WNW 03:04:43 26° WSW visible
07 Apr 7.7 23:04:26 10° NNE 23:06:57 13° NE 23:09:27 10° ENE visible
